This is the latest recevied weather packets stored in our database for station/object F5MAP-5. If no packets are shown the sender has not sent any weather packets the latest 10 day(s).
| Time | Temp. | Humidity | Pressure | Rain* | Wind** | Luminosity | Snow |
|---|---|---|---|---|---|---|---|
| 1787591533 | 21.67° C | 62% | 1012.3 hPa | 0 mm | - | 21 W/m² | - |
| 1787590933 | 22.22° C | 61% | 1012.5 hPa | 0 mm | - | 32 W/m² | - |
| 1787590333 | 22.22° C | 60% | 1012.5 hPa | 0 mm | - | 40 W/m² | - |
| 1787589733 | 22.22° C | 60% | 1012.6 hPa | 0 mm | - | 69 W/m² | - |
| 1787589133 | 22.22° C | 59% | 1012.7 hPa | 0 mm | - | 81 W/m² | - |
| 1787588533 | 22.78° C | 58% | 1012.9 hPa | 0 mm | - | 90 W/m² | - |
| 1787587933 | 22.78° C | 57% | 1013.1 hPa | 0 mm | - | 93 W/m² | - |
| 1787587333 | 23.33° C | 57% | 1013.3 hPa | 0 mm | - | 107 W/m² | - |
| 1787586733 | 23.33° C | 57% | 1013.6 hPa | 0 mm | - | 88 W/m² | - |
| 1787586133 | 23.33° C | 57% | 1013.8 hPa | 0 mm | - | 90 W/m² | - |
| 1787585533 | 23.33° C | 56% | 1013.9 hPa | 0 mm | - | 63 W/m² | - |
| 1787584933 | 23.33° C | 55% | 1014.1 hPa | 0 mm | - | 60 W/m² | - |
| 1787584333 | 23.33° C | 55% | 1014.4 hPa | 0 mm | - | 174 W/m² | - |
| 1787583733 | 23.33° C | 55% | 1014.5 hPa | 0 mm | - | 105 W/m² | - |
| 1787583132 | 23.33° C | 54% | 1014.7 hPa | 0 mm | - | 91 W/m² | - |
| 1787582533 | 23.33° C | 54% | 1014.8 hPa | 0 mm | - | 93 W/m² | - |
| 1787581932 | 23.33° C | 55% | 1014.9 hPa | 0 mm | - | 206 W/m² | - |
| 1787581332 | 23.33° C | 55% | 1014.8 hPa | 0 mm | - | 285 W/m² | - |
| 1787580732 | 23.33° C | 57% | 1015 hPa | 0 mm | - | 216 W/m² | - |
| 1787580132 | 23.33° C | 57% | 1015.1 hPa | 0 mm | - | 190 W/m² | - |
| 1787579532 | 22.78° C | 58% | 1015.3 hPa | 0 mm | - | 232 W/m² | - |
| 1787578933 | 22.78° C | 60% | 1015.3 hPa | 0 mm | - | 251 W/m² | - |
| 1787578332 | 22.78° C | 61% | 1015.4 hPa | 0 mm | - | 227 W/m² | - |
| 1787577733 | 22.78° C | 61% | 1015.5 hPa | 0 mm | - | 144 W/m² | - |
| 1787577132 | 23.33° C | 60% | 1015.4 hPa | 0 mm | - | 111 W/m² | - |
* Rain latest hour (hover to see other rain measurements)
** Current wind speed in m/s (hover to see current wind gust speed)